TimeCDT,TemperatureF,Dew PointF,Humidity,Sea Level PressureIn,VisibilityMPH,Wind Direction,Wind SpeedMPH,Gust SpeedMPH,PrecipitationIn,Events,Conditions,WindDirDegrees,DateUTC
12:53 AM,51.1,41.0,68,29.93,10.0,SSE,10.4,-,N/A,,Clear,150,2011-11-03 05:53:00
1:53 AM,45.0,39.0,80,29.91,10.0,ESE,5.8,-,N/A,,Clear,110,2011-11-03 06:53:00
2:53 AM,46.0,39.9,79,29.91,10.0,East,9.2,-,N/A,,Clear,90,2011-11-03 07:53:00
3:53 AM,46.9,39.9,77,29.89,10.0,East,9.2,-,N/A,,Overcast,80,2011-11-03 08:53:00
4:53 AM,48.0,41.0,77,29.91,10.0,East,4.6,-,0.00,Rain,Light Rain,100,2011-11-03 09:53:00
5:53 AM,46.0,44.1,93,29.88,3.0,East,6.9,-,0.15,Rain,Rain,100,2011-11-03 10:53:00
6:10 AM,46.4,44.6,93,29.87,2.5,East,8.1,-,0.09,Rain,Rain,80,2011-11-03 11:10:00
6:18 AM,46.4,44.6,93,29.86,3.0,East,9.2,-,0.11,Rain,Rain,80,2011-11-03 11:18:00
6:53 AM,46.9,46.0,97,29.87,3.0,East,12.7,-,0.19,Rain,Rain,90,2011-11-03 11:53:00
7:30 AM,46.4,46.4,100,29.82,3.0,East,15.0,-,0.15,Rain,Rain,90,2011-11-03 12:30:00
7:38 AM,46.4,46.4,100,29.82,2.5,East,17.3,-,0.20,Rain,Heavy Rain,90,2011-11-03 12:38:00
7:53 AM,46.0,46.0,100,29.83,2.5,East,17.3,-,0.26,Rain,Rain,80,2011-11-03 12:53:00
8:26 AM,46.4,46.4,100,29.85,3.0,SE,13.8,-,0.04,Rain,Light Rain,140,2011-11-03 13:26:00
8:35 AM,46.4,46.4,100,29.84,3.0,ESE,17.3,-,0.05,Rain,Light Rain,110,2011-11-03 13:35:00
8:42 AM,46.4,44.6,93,29.85,3.0,ESE,16.1,-,0.05,Rain,Light Rain,110,2011-11-03 13:42:00
8:49 AM,46.4,44.6,93,29.84,1.8,East,13.8,23.0,0.08,Rain,Heavy Rain,100,2011-11-03 13:49:00
8:53 AM,46.9,45.0,93,29.85,1.2,ESE,15.0,23.0,0.09,Rain,Rain,110,2011-11-03 13:53:00
9:43 AM,46.4,46.4,100,29.83,1.5,East,12.7,-,0.05,Rain,Light Rain,90,2011-11-03 14:43:00
9:53 AM,46.9,46.9,100,29.84,1.5,East,12.7,23.0,0.05,Rain,Light Rain,90,2011-11-03 14:53:00
10:53 AM,48.0,48.0,100,29.84,2.5,East,13.8,-,0.06,Rain,Light Rain,80,2011-11-03 15:53:00
11:11 AM,48.2,48.2,100,29.83,1.8,ENE,15.0,-,0.00,,Overcast,70,2011-11-03 16:11:00
11:18 AM,48.2,48.2,100,29.83,1.0,ENE,13.8,-,0.00,Rain,Light Rain,70,2011-11-03 16:18:00
11:53 AM,48.0,48.0,100,29.84,0.8,ENE,12.7,-,0.06,Rain,Heavy Rain,60,2011-11-03 16:53:00
12:28 PM,48.2,48.2,100,29.84,1.0,NE,9.2,-,N/A,Rain,Rain,50,2011-11-03 17:28:00
12:53 PM,48.0,48.0,100,29.85,1.0,NNE,11.5,-,0.10,Rain,Heavy Rain,30,2011-11-03 17:53:00
1:50 PM,46.4,46.4,100,29.84,3.0,NNE,18.4,23.0,0.16,Rain,Light Rain,30,2011-11-03 18:50:00
1:53 PM,46.9,46.0,97,29.85,3.0,NNE,18.4,26.5,0.17,Rain,Rain,30,2011-11-03 18:53:00
2:46 PM,48.2,44.6,87,29.85,4.0,NE,13.8,25.3,0.04,Rain,Light Rain,40,2011-11-03 19:46:00
2:53 PM,48.0,45.0,89,29.86,4.0,NNE,18.4,24.2,0.04,Rain,Light Rain,30,2011-11-03 19:53:00
3:49 PM,48.2,44.6,87,29.87,3.0,NE,13.8,25.3,0.00,Rain,Light Rain,40,2011-11-03 20:49:00
3:53 PM,48.0,46.0,93,29.88,3.0,NNE,16.1,-,0.00,Rain,Light Rain,30,2011-11-03 20:53:00
4:53 PM,48.0,46.0,93,29.92,2.5,NNE,17.3,-,0.03,Rain,Light Rain,30,2011-11-03 21:53:00
5:53 PM,48.2,44.6,87,29.95,2.5,NNE,21.9,-,N/A,Rain,Light Rain,30,2011-11-03 22:53:00
6:03 PM,48.2,44.6,87,29.95,3.0,NNE,20.7,29.9,0.01,Rain,Light Rain,30,2011-11-03 23:03:00
6:53 PM,46.9,44.1,90,30.00,7.0,NNE,16.1,27.6,0.04,Rain,Light Rain,20,2011-11-03 23:53:00
7:53 PM,46.9,44.1,90,30.03,9.0,NNE,20.7,26.5,0.00,,Overcast,20,2011-11-04 00:53:00
8:21 PM,46.4,44.6,93,30.03,9.0,NNE,21.9,-,N/A,,Overcast,20,2011-11-04 01:21:00
8:53 PM,46.4,44.6,93,30.04,10.0,NNE,20.7,31.1,N/A,,Overcast,20,2011-11-04 01:53:00
9:27 PM,46.4,44.6,93,30.07,10.0,North,23.0,29.9,N/A,,Overcast,10,2011-11-04 02:27:00
9:53 PM,46.9,43.0,86,30.09,10.0,NNE,24.2,31.1,N/A,,Overcast,20,2011-11-04 02:53:00
10:53 PM,46.9,42.1,83,30.09,10.0,NNE,20.7,28.8,N/A,,Overcast,20,2011-11-04 03:53:00
11:53 PM,46.9,42.1,83,30.11,10.0,NNE,18.4,27.6,N/A,,Overcast,20,2011-11-04 04:53:00